Location: Arbon
(43.0005°N, 0.7472°E)
Time: 06:22:42
(UTC+00:00)

Vanguard 1 - Pass Details

Date: 02 December 2020
Orbit: 648 x 3834 km, 34.3° (Epoch: 21 January)

Event Time Altitude Azimuth Distance (km) Brightness Sun altitude
Rises 07:17:31 0° 264° (W) 3,782 12.6 0.4°
Reaches altitude 10° 07:19:47 10° 258° (WSW) 3,082 12.2 0.7°
Maximum altitude 07:27:09 46° 187° (S) 2,150 12.1 1.8°
Drops below altitude 10° 07:40:23 10° 120° (ESE) 5,416 16.5 3.9°
Sets 07:45:52 0° 116° (ESE) 6,922 16.7 4.7°
